Location: Newark
(50.4348°N, 30.5552°E)
Time: 12:22:16
(UTC+00:00)

SR - Visible Passes

Search period start: 20 January 2020 00:00
Search period end: 30 January 2020 00:00
Orbit: 574 x 882 km, 66.7° (Epoch: 20 January)

Date Brightness Start Highest point End Pass type
(mag) Time Alt. Az. Time Alt. Az. Time Alt. Az.
20 Jan ? 01:50:32 15° NNE 01:50:32 15° NNE 01:52:30 10° NNE visible
20 Jan ? 03:29:56 13° NNW 03:33:19 21° NNE 03:37:29 10° ENE visible
20 Jan ? 05:11:04 10° NNW 05:16:44 54° NE 05:21:58 10° ESE visible
21 Jan ? 01:02:11 11° NNE 01:02:11 11° NNE 01:02:22 10° NNE visible
21 Jan ? 02:41:35 16° N 02:42:55 17° NNE 02:46:38 10° NE visible
21 Jan ? 04:21:25 10° NNW 04:26:45 36° NE 04:31:43 10° ESE visible
22 Jan ? 01:53:14 16° NNE 01:53:14 16° NNE 01:55:54 10° NE visible
22 Jan ? 03:32:38 13° NNW 03:36:35 26° NNE 03:41:09 10° E visible
23 Jan ? 01:04:54 12° NNE 01:04:54 12° NNE 01:05:27 10° NNE visible
23 Jan ? 02:44:19 17° N 02:46:17 20° NNE 02:50:23 10° ENE visible
23 Jan ? 04:24:08 10° NNW 04:29:45 52° NE 04:34:56 10° ESE visible
24 Jan ? 01:56:01 17° NNE 01:56:01 17° NNE 01:59:33 10° NE visible
24 Jan ? 03:35:25 14° NNW 03:39:45 35° NE 03:44:39 10° ESE visible
25 Jan ? 01:07:44 13° NNE 01:07:44 13° NNE 01:08:50 10° NE visible
25 Jan ? 02:47:09 19° N 02:49:34 25° NNE 02:54:05 10° E visible
25 Jan ? 04:26:53 10° NW 04:32:36 79° NE 04:37:51 10° SE visible
26 Jan ? 01:58:54 20° NNE 01:59:16 20° NNE 02:03:17 10° ENE visible
26 Jan ? 03:38:19 16° NNW 03:42:46 50° NE 03:47:54 10° ESE visible
27 Jan ? 01:10:42 15° NNE 01:10:42 15° NNE 01:12:26 10° NE visible
27 Jan ? 02:50:07 23° N 02:52:44 33° NE 02:57:35 10° E visible
27 Jan ? 04:29:42 10° NW 04:35:18 65° WSW 04:40:24 10° SSE visible
28 Jan ? 02:01:59 24° NNE 02:02:33 25° NNE 02:06:59 10° E visible
28 Jan ? 03:41:24 18° NNW 03:45:38 76° NE 03:50:51 10° SE visible
29 Jan ? 01:13:54 17° NE 01:13:54 17° NE 01:16:11 10° ENE visible
29 Jan ? 02:53:20 29° NNW 02:55:47 48° NE 03:00:52 10° ESE visible
29 Jan ? 04:32:45 10° NW 04:37:49 39° WSW 04:42:32 10° S visible
